SCP
-0 -0 -0 -0 -0 -0 -0 -0 -0 -0 -0 0 0 0 0 0 0 0 0 0 0 0 0 0 0 0 0 0 0 0 0 0 0 0 0 0 0 0 0 0 0 0 0 0
-0 -0 -0 -0 -0 -0 -0 -0 -0 -0 0 0 0 0 0 0 0 0 0 0 0 0 0 0 0 0 0 0 0 0 0 0 0 0 0 0 0 0 0 0 0 0 0 0
-0 -0 -0 -0 -0 -0 -0 -0 -0 0 0 0 0 0 0 0 0 0 0 0 0 0 0 0 0 0 0 0 0 0 0 0 0 0 0 0 0 0 0 0 0 0 0 0
0 -0 -0 -0 0 0 -0 -0 -0 0 0 0 0 0 0 0 0 0 0 0 0 0 0 0 0 0 0 0 0 0 0 0 0 0 0 0 0 0 0 0 0 0 0 0
0 0 0 0 0 0 0 0 0 0 0 0 0 0 0 0 0 0 0 0 0 0 0 0 0 0 0 0 0 0 0 0 0 0 0 0 0 0 0 0 0 0 0 0
0 0 0 0 0 0 0 0 0 0 0 0 0 0 0 0 0 0 0 0 0 0 0 0 0 0 0 0 0 0 0 0 0 0 0 0 0 0 0 0 0 0 0 0
0 0 0 0 0 0 0 0 0 0 0 0 0 0 0 0 0 0 0 0 0 0 0 0 0 0 0 0 0 0 0 0 0 0 0 0 0 0 0 0 0 0 0 0
0 0 0 0 0 0 0 0 0 0 0 0 0 0 0 0 0 0 0 0 0 0 0 0 0 0 0 0 0 0 0 0 0 0 0 0 0 0 0 0 0 0 0 0
0 0 0 0 0 0 0 0 0 0 0 0 0 0 0 0 0 0 0 0 0 0 0 0 0 0 0 0 0 0 0 0 0 0 0 0 0 0 0 0 0 0 0 0
0 0 0 0 0 0 0 0 0 0 0 0 0 0 0 0 0 0 0 0 0 0 0 0 0 0 0 0 0 0 0 0 0 0 0 0 0 0 0 0 0 0 0 0
0 0 0 0 0 0 0 0 0 0 0 0 0 0 0 0 0 0 0 0 0 0 0 0 0 0 0 0 0 0 0 0 0 0 0 0 0 0 0 0 0 0 0 0
0 0 0 0 0 0 0 0 0 0 0 0 0 0 0 0 0 0 0 0 0 0 0 0 0 0 0 0 0 0 0 0 0 0 0 0 0 0 0 0 0 0 0 0
0 0 0 0 0 0 0 0 0 0 0 0 0 0 0 0 0 0 0 0 0 0 0 0 0 0 0 0 0 0 0 0 0 0 0 0 0 0 0 0 0 0 0 0
0 0 0 0 0 0 0 0 0 0 0 0 0 0 0 0 0 0 0 0 0 0 0 0 0 0 0 0 0 0 0 0 0 0 0 0 0 0 0 0 0 0 0 0
0 0 0 0 0 0 0 0 0 0 0 0 0 0 0 0 0 0 0 0 0 0 0 0 0 0 0 0 0 0 0 0 0 0 0 0 0 0 0 0 0 0 0 0
0 0 0 0 0 0 0 0 0 0 0 0 0 0 0 0 0 0 0 0 0 0 0 0 0 0 0 0 0 0 0 0 0 0 0 0 0 0 0 0 0 0 0 0
0 0 0 0 0 0 0 0 0 0 0 0 0 0 0 0 0 0 0 0 0 0 0 0 0 0 0 0 0 0 0 0 0 0 0 0 0 0 0 0 0 0 0 0
0 0 0 0 0 0 0 0 -0 0 0 0 0 0 0 0 0 0 0 0 0 0 0 0 0 0 0 0 0 0 0 0 0 0 0 0 0 0 0 0 0 0 0 0
0 0 0 0 0 0 0 0 0 0 0 0 0 0 0 0 0 0 0 0 0 0 0 0 0 0 0 0 0 0 0 0 0 0 0 0 0 0 0 0 0 0 0 0
0 0 0 0 0 0 0 0 0 0 0 0 0 0 0 0 0 0 0 0 0 0 0 0 0 0 0 0 0 0 0 0 0 0 0 0 0 0 0 0 0 0 0 0
0 0 0 0 0 0 0 0 0 0 0 0 0 0 0 0 0 0 0 0 0 0 0 0 0 0 0 0 0 0 0 0 0 0 0 0 0 0 0 0 0 0 0 0
0 0 0 0 0 0 0 0 0 0 0 0 0 0 0 0 0 0 0 0 0 0 0 0 0 0 0 0 0 0 0 0 0 0 0 0 0 0 0 0 0 0 0 0
0 0 0 0 0 0 0 0 0 0 0 0 0 0 0 0 0 0 0 0 0 0 0 0 0 0 0 0 0 0 0 0 0 0 0 0 0 0 0 0 0 0 0 0
0 0 0 0 0 0 0 0 0 0 0 0 0 0 0 0 0 0 0 0 0 0 0 0 0 0 0 0 0 0 0 0 0 0 0 0 0 0 0 0 0 0 0 0
0 0 0 0 0 0 0 0 0 0 0 0 0 0 0 0 0 0 0 0 0 0 0 0 0 0 0 0 0 0 0 0 0 0 0 0 0 0 0 0 0 0 0 0
0 0 0 0 0 0 0 0 0 0 0 0 0 0 0 0 0 0 0 0 0 0 0 0 0 0 0 0 0 0 0 0 0 0 0 0 0 0 0 0 0 0 0 0
0 0 0 0 0 0 0 0 0 0 0 0 0 0 0 0 0 0 0 0 0 0 0 0 0 0 0 0 0 0 0 0 0 0 0 0 0 0 0 0 0 0 0 0
Wind_Speed
9 7 7 9 10 8 9 11 12 11 10 8 4 4 5 7 8 10 10 11 10 9 8 7 7 6 6 6 5 5 6 8 8 8 9 9 9 10 10 10 11 11 11 11
11 9 8 10 9 8 7 8 9 10 10 5 1 3 5 7 9 11 11 11 11 10 9 8 8 7 6 6 5 5 7 8 8 8 9 9 9 10 10 10 10 11 11 11
11 8 8 10 6 5 5 6 8 10 8 5 3 4 6 7 9 11 11 11 11 10 10 8 8 7 7 6 5 6 7 8 8 8 9 9 10 10 10 10 11 11 11 11
9 7 10 4 0 4 7 9 7 8 8 5 5 4 5 7 9 10 11 11 11 10 10 9 8 8 7 6 6 6 7 7 8 8 9 9 9 10 10 10 10 10 10 11
7 9 8 6 2 4 7 9 6 5 6 5 2 5 9 10 11 11 11 11 10 11 10 9 9 8 7 7 7 7 7 7 7 8 9 9 10 10 10 10 10 10 10 11
6 8 8 4 5 2 5 8 4 5 8 8 4 9 7 2 8 11 12 11 11 10 10 10 9 9 8 8 7 7 7 6 6 7 8 9 10 10 9 9 10 11 11 11
8 8 7 5 5 3 7 7 11 10 10 11 9 11 11 7 5 8 10 11 10 10 10 10 10 10 10 9 8 7 6 6 7 7 8 9 9 9 9 10 10 11 12 11
5 8 3 8 4 6 10 12 12 13 13 12 12 13 13 10 8 8 9 10 10 10 10 9 11 11 10 10 8 6 6 6 7 7 8 7 9 9 10 10 11 11 11 11
5 5 7 7 7 9 10 12 13 13 14 13 12 12 11 10 8 7 8 8 8 9 10 9 10 11 11 9 7 6 6 7 7 8 8 8 9 10 10 9 9 9 9 10
6 3 5 9 11 11 11 11 11 11 11 11 10 10 9 8 7 6 6 6 6 7 8 8 9 9 9 7 7 7 8 8 7 8 8 8 8 9 9 8 8 8 9 9
7 3 3 10 13 12 11 11 12 12 12 12 10 10 9 8 8 7 5 4 3 4 6 6 6 7 8 8 8 8 8 8 8 8 8 8 8 8 9 9 8 9 10 10
4 7 5 7 10 10 11 12 13 13 14 14 14 13 12 10 9 9 8 7 4 3 4 4 5 7 8 8 9 9 9 9 8 7 6 7 8 9 10 12 11 13 15 15
3 5 7 7 9 10 11 11 12 13 14 13 14 13 12 11 10 9 8 8 6 5 4 4 4 6 7 8 10 11 10 9 7 7 7 7 8 8 9 8 13 17 18 17
6 7 9 9 9 10 11 11 12 13 13 13 12 12 12 11 11 11 10 9 7 6 6 6 6 7 7 7 9 11 12 10 9 8 8 8 8 8 8 9 10 8 9 15
10 9 9 9 10 11 12 12 13 13 13 13 12 12 12 12 11 11 10 10 9 9 9 9 9 9 8 8 10 12 11 9 8 8 8 8 8 8 8 10 10 9 9 7
10 10 9 10 11 11 12 13 12 13 13 13 13 12 12 11 11 11 11 12 12 12 11 11 11 11 11 10 10 10 10 11 9 8 8 8 8 8 8 9 9 9 9 9
8 8 9 10 10 11 11 12 12 13 13 14 14 13 12 12 11 11 11 12 12 12 12 12 13 13 13 11 11 10 10 9 11 9 9 8 8 8 8 8 8 9 9 7
7 7 6 7 9 11 12 13 13 13 13 14 14 13 12 12 12 12 13 13 13 13 13 14 15 16 15 13 10 9 8 8 8 8 7 7 7 7 8 8 9 10 9 7
6 6 7 8 9 10 11 12 13 13 13 13 13 13 12 12 12 12 13 14 14 14 14 16 16 17 15 12 9 8 8 8 7 6 6 6 7 8 8 8 8 8 8 8
5 6 8 9 10 11 12 12 13 12 12 12 12 12 12 12 12 13 13 13 11 12 14 16 17 16 14 11 9 8 7 7 6 5 5 6 6 7 7 8 8 8 8 7
7 9 11 12 12 12 12 13 12 12 12 12 12 13 13 13 14 13 13 13 12 12 14 15 13 12 12 11 10 8 6 5 4 4 4 5 6 7 7 7 7 7 7 7
9 10 12 13 13 12 12 12 13 13 13 13 14 14 15 14 14 14 13 10 11 10 11 12 11 12 13 13 8 6 4 3 3 3 4 5 6 6 6 7 7 7 7 7
10 11 12 12 13 13 14 13 14 13 13 14 15 15 14 14 12 12 12 10 11 11 11 10 11 12 13 9 6 5 4 3 3 4 4 5 5 6 6 7 7 7 7 7
11 12 12 13 13 14 14 14 14 12 14 15 14 14 13 12 11 10 10 9 8 9 9 7 9 11 10 6 5 5 4 4 4 5 5 5 5 6 6 6 6 7 7 8
12 13 14 14 14 12 13 14 14 14 14 12 14 14 12 10 10 10 10 11 8 8 7 5 6 9 7 6 6 5 5 5 6 6 6 6 6 7 6 6 6 7 7 7
12 12 12 12 12 11 12 12 11 11 11 11 11 11 11 10 10 9 8 9 9 7 6 5 6 6 6 6 5 6 6 6 6 5 7 7 7 7 6 7 8 7 7 7
13 12 10 11 11 10 10 10 11 11 11 11 12 12 12 11 9 8 9 7 6 6 5 5 5 5 5 6 6 6 6 6 6 6 7 7 6 6 7 8 6 6 6 7
Wind_Direction
273 282 281 288 293 283 261 275 286 296 299 304 298 250 230 214 203 199 196 195 198 204 205 206 210 215 227 243 252 263 271 276 279 281 281 279 278 276 276 277 277 279 281 280
265 260 264 274 280 281 276 271 275 283 287 306 321 231 221 212 207 207 206 205 207 211 213 212 213 218 224 235 247 255 267 277 286 288 287 285 284 281 278 277 279 281 280 280
268 262 259 262 265 278 285 284 285 292 309 335 288 245 236 227 220 220 218 214 214 216 216 215 212 212 220 231 243 254 266 276 284 287 289 290 290 288 285 284 282 280 281 280
267 262 259 277 6 292 294 294 288 287 294 294 287 283 260 245 236 231 226 223 221 222 216 209 205 203 211 223 234 253 266 276 284 288 290 293 291 289 289 287 287 285 283 282
262 259 262 268 245 261 285 294 303 301 300 289 287 268 250 226 225 233 231 227 227 226 220 205 203 200 204 223 237 253 265 277 287 292 293 293 291 291 291 289 287 285 283 281
247 270 276 306 58 2 276 272 2 337 310 303 264 279 305 309 210 226 231 229 226 223 216 200 197 194 206 225 237 252 267 279 287 287 288 290 291 292 290 287 284 285 284 283
253 263 270 39 55 244 266 352 359 335 319 305 284 283 306 304 245 229 231 230 225 220 213 204 192 190 207 225 237 249 261 270 275 280 281 282 286 285 284 283 285 287 287 283
257 266 314 56 0 333 345 338 330 323 316 309 296 288 291 288 272 252 244 236 225 217 216 203 192 193 208 222 230 236 245 259 269 274 278 283 282 281 280 281 281 281 281 282
293 310 23 23 2 356 342 327 324 320 317 311 300 295 296 294 286 277 268 259 242 227 221 208 199 201 213 219 219 224 236 249 261 269 270 273 275 276 274 270 273 280 283 285
277 285 19 32 24 10 360 347 338 336 333 328 319 319 322 326 325 313 299 283 261 242 232 219 208 209 215 213 209 220 236 248 255 261 264 265 267 269 272 276 277 278 281 282
258 327 19 48 25 16 17 18 19 20 18 12 8 6 5 6 2 354 343 327 297 262 249 235 211 209 213 211 208 219 233 244 252 257 263 273 268 267 274 277 283 287 290 290
359 30 3 32 25 24 32 33 31 32 34 33 31 30 29 26 21 16 11 4 351 319 281 255 225 219 218 213 209 219 232 239 246 253 259 266 272 271 240 238 250 247 251 262
7 47 68 67 46 37 40 40 39 37 33 30 28 24 24 23 20 18 15 10 357 337 316 291 266 250 240 223 219 223 235 243 250 257 261 264 270 277 285 261 231 235 243 245
104 103 80 62 50 38 34 32 33 33 29 25 21 16 14 11 10 8 5 359 350 336 320 302 285 274 262 241 231 233 238 238 239 253 260 267 272 276 280 289 293 285 253 235
87 87 84 68 49 38 29 22 21 18 12 10 10 6 3 0 359 357 355 352 348 339 332 323 310 302 289 262 245 241 240 241 237 248 258 264 269 273 277 281 283 288 293 278
95 81 66 51 35 22 16 11 6 358 354 352 352 350 348 346 345 349 352 352 347 341 337 331 323 318 307 284 264 250 242 239 241 251 259 262 264 270 277 280 283 287 289 293
83 62 43 28 15 6 359 354 346 342 339 338 336 334 334 337 339 345 346 346 340 333 332 333 330 326 314 297 277 264 256 236 211 233 248 259 269 276 281 283 286 289 290 295
68 51 29 10 356 347 344 341 337 333 330 327 325 326 328 329 331 335 336 333 329 326 333 335 334 324 310 298 285 274 264 259 244 241 249 257 272 279 281 283 285 288 291 288
45 22 4 352 343 335 332 330 330 327 324 322 321 321 321 322 326 328 329 327 323 324 338 335 329 313 308 306 295 273 265 260 256 251 255 256 259 269 280 286 288 291 295 300
7 351 341 336 337 336 332 331 329 325 325 324 321 320 321 324 326 325 325 318 326 339 335 330 322 317 318 320 310 285 270 260 258 258 260 270 276 283 287 292 298 299 299 303
335 332 332 333 333 331 331 329 325 322 322 322 320 319 319 320 319 320 319 317 330 343 331 318 316 328 331 333 312 295 282 266 263 266 271 277 284 291 298 303 305 303 305 307
324 324 324 324 322 321 322 317 315 315 317 317 317 316 315 313 315 315 312 316 324 346 329 323 333 349 340 323 312 309 305 297 292 289 284 286 294 301 305 310 308 307 308 308
314 315 314 313 313 311 309 307 308 312 312 312 309 308 309 312 310 309 312 327 330 341 325 334 353 346 332 322 323 322 320 314 303 296 299 305 307 307 310 315 314 311 310 313
306 306 305 305 305 302 301 305 307 306 303 300 299 305 307 304 307 314 322 329 339 332 326 359 359 345 329 329 337 340 340 338 332 327 323 322 322 320 322 322 316 313 314 313
300 300 297 297 296 298 303 302 299 298 298 301 305 308 306 309 314 322 323 324 334 324 327 8 12 348 341 355 358 356 353 0 353 339 337 336 331 327 325 322 319 315 312 311
294 292 295 296 294 292 290 293 298 303 303 304 306 308 310 312 314 319 319 324 333 339 338 353 7 2 1 2 1 359 356 357 351 344 343 334 328 327 325 323 319 315 311 312
286 284 281 280 285 291 299 303 303 303 304 305 308 310 310 312 315 322 325 331 344 356 8 15 17 12 4 1 1 2 360 356 353 348 342 337 333 329 326 321 318 313 312 317